Weather reports worldwide

Advertisment
Keswick, United Kingdom (3212): temperature & dewpoint: 23.05.2020 14:00:00 - 29.05.2020 14:00:00 (BST)Keswick, United Kingdom (3212): temperature -20cm: 23.05.2020 14:00:00 - 29.05.2020 14:00:00 (BST)Keswick, United Kingdom (3212): wind speed & gusts: 23.05.2020 14:00:00 - 29.05.2020 14:00:00 (BST)Keswick, United Kingdom (3212): wind direction: 23.05.2020 14:00:00 - 29.05.2020 14:00:00 (BST)Keswick, United Kingdom (3212): reduced air pressure: 23.05.2020 14:00:00 - 29.05.2020 14:00:00 (BST)Keswick, United Kingdom (3212): visibility: 23.05.2020 14:00:00 - 29.05.2020 14:00:00 (BST)Keswick, United Kingdom (3212): precipitation: 23.05.2020 14:00:00 - 29.05.2020 14:00:00 (BST)
Date & Time tt [°C] td [°C] tt -20cm [°C] ff [km/h] ff [kn] fx [km/h] fx [kn] dd ppp [hPa] vv [km] rr [mm]
29.05.2020 14:00:00 23,3 9,8 - 13 7 - - S 1026,4 40 0,0
29.05.2020 13:00:00 22,7 9,5 - 15 8 - - S 1027,1 35 0,0
29.05.2020 12:00:00 22,5 9,8 - 9 5 - - S 1027,8 30 0,0
29.05.2020 11:00:00 21,1 8,0 - 11 6 - - S 1028,2 35 0,0
29.05.2020 10:00:00 20,3 7,7 16,4 8 4 - - SSE 1028,5 27 0,0
29.05.2020 09:00:00 19,6 8,8 - 4 2 - - S 1028,8 50 0,0
29.05.2020 08:00:00 18,2 8,9 - 8 4 - - E 1028,9 40 0,0
29.05.2020 07:00:00 16,9 8,3 - 5 3 - - ENE 1029,1 40 0,0
29.05.2020 06:00:00 14,9 7,7 - 5 3 - - E 1029,5 40 0,0
29.05.2020 05:00:00 15,9 7,7 - 8 4 - - E 1029,4 50 0,0
29.05.2020 04:00:00 15,6 8,0 - 8 4 - - E 1029,3 45 0,0
29.05.2020 03:00:00 15,3 8,5 - 5 3 - - E 1029,4 45 0,0
29.05.2020 02:00:00 15,9 9,8 - 8 4 - - E 1029,5 40 0,0
29.05.2020 01:00:00 14,6 11,2 - 8 4 - - ESE 1029,8 40 0,0
29.05.2020 00:00:00 15,0 11,6 - 8 4 - - SE 1029,9 30 0,0
28.05.2020 23:00:00 14,3 11,5 - 2 1 - - ESE 1030,0 30 0,0
28.05.2020 22:00:00 16,5 12,4 - 0 0 - - N 1030,0 26 0,0
28.05.2020 21:00:00 19,0 13,0 - 2 1 - - S 1029,7 24 0,0
28.05.2020 20:00:00 20,9 14,1 - 2 1 - - NW 1029,7 28 0,0
28.05.2020 19:00:00 21,5 13,7 - 2 1 - - NW 1029,9 29 0,0
28.05.2020 18:00:00 22,9 14,6 - 2 1 - - WNW 1030,2 30 0,0
28.05.2020 17:00:00 23,0 13,9 - 4 2 - - NW 1030,6 26 0,0
28.05.2020 16:00:00 23,2 14,3 - 4 2 - - NW 1031,0 20 0,0
28.05.2020 15:00:00 23,5 10,2 - 4 2 - - W 1031,5 35 0,0
28.05.2020 14:00:00 23,1 10,6 - 4 2 - - E 1032,1 30 0,0
28.05.2020 13:00:00 21,7 10,2 - 5 3 - - ESE 1032,7 40 0,0
28.05.2020 12:00:00 20,9 9,8 - 8 4 - - SSE 1033,2 40 0,0
28.05.2020 11:00:00 19,4 8,7 - 9 5 - - SE 1033,7 45 0,0
28.05.2020 10:00:00 18,3 7,6 15,4 8 4 - - ESE 1034,2 30 0,0
28.05.2020 09:00:00 17,7 7,9 - 4 2 - - ENE 1034,7 24 0,0
28.05.2020 08:00:00 14,8 9,7 - 4 2 - - S 1035,1 24 0,0
28.05.2020 07:00:00 11,0 9,4 - 2 1 - - SE 1035,5 30 0,0
28.05.2020 06:00:00 8,0 7,0 - 0 0 - - N 1035,9 30 0,0
28.05.2020 05:00:00 8,0 6,8 - 0 0 - - N 1036,0 28 0,0
28.05.2020 04:00:00 8,9 7,2 - 2 1 - - S 1036,2 26 0,0
28.05.2020 03:00:00 10,1 7,8 - 4 2 - - SSE 1036,2 29 0,0
28.05.2020 02:00:00 11,2 8,0 - 2 1 - - SE 1036,1 27 0,0
28.05.2020 01:00:00 13,5 9,2 - 5 3 - - E 1036,0 29 0,0
28.05.2020 00:00:00 11,7 8,6 - 4 2 - - S 1036,4 35 0,0
27.05.2020 23:00:00 11,4 8,8 - 2 1 - - WNW 1036,6 23 0,0
27.05.2020 22:00:00 12,9 8,9 - 2 1 - - S 1036,9 27 0,0
27.05.2020 21:00:00 15,0 9,1 - 4 2 - - W 1036,4 29 0,0
27.05.2020 20:00:00 17,4 8,8 - 4 2 - - WNW 1036,2 30 0,0
27.05.2020 19:00:00 18,6 9,0 - 4 2 - - WNW 1035,9 20 0,0
27.05.2020 18:00:00 19,7 9,3 - 4 2 - - NW 1035,9 30 0,0
27.05.2020 17:00:00 20,3 10,8 - 5 3 - - WNW 1036,2 35 0,0
27.05.2020 16:00:00 19,5 9,0 - 4 2 - - NW 1036,5 35 0,0
27.05.2020 15:00:00 18,5 7,5 - 4 2 - - NW 1036,8 22 0,0
27.05.2020 14:00:00 17,2 9,7 - 4 2 - - NW 1037,2 25 0,0
27.05.2020 13:00:00 17,3 9,0 - 4 2 - - WNW 1037,3 28 0,0
27.05.2020 12:00:00 17,0 9,9 - 4 2 - - NW 1037,6 23 0,0
27.05.2020 11:00:00 16,5 9,4 - 5 3 - - WNW 1037,8 20 0,0
27.05.2020 10:00:00 14,9 9,5 14,7 4 2 - - NW 1037,7 35 0,0
27.05.2020 09:00:00 11,5 8,0 - 2 1 - - NW 1038,1 17 0,0
27.05.2020 08:00:00 9,7 8,3 - 0 0 - - N 1038,0 26 0,0
27.05.2020 07:00:00 6,4 6,3 - 2 1 - - E 1038,1 30 0,0
27.05.2020 06:00:00 4,9 4,7 - 2 1 - - ESE 1038,0 24 0,0
27.05.2020 05:00:00 4,5 4,2 - 2 1 - - ESE 1037,8 15 0,0
27.05.2020 04:00:00 4,4 3,9 - 2 1 - - E 1038,0 16 0,0
27.05.2020 03:00:00 4,8 4,2 - 2 1 - - ESE 1037,9 21 0,0
27.05.2020 02:00:00 5,3 4,6 - 0 0 - - N 1038,1 25 0,0
27.05.2020 01:00:00 6,3 5,4 - 0 0 - - N 1038,3 23 0,0
27.05.2020 00:00:00 7,7 6,1 - 0 0 - - N 1038,1 26 0,0
26.05.2020 23:00:00 9,4 7,0 - 2 1 - - E 1037,9 28 0,0
26.05.2020 22:00:00 11,2 6,4 - 4 2 - - E 1037,6 30 0,0
26.05.2020 21:00:00 13,9 7,1 - 0 0 - - N 1037,2 30 0,0
26.05.2020 20:00:00 15,1 7,5 - 2 1 - - NW 1036,9 26 0,0
26.05.2020 19:00:00 15,0 7,0 - 2 1 - - WNW 1036,7 30 0,0
26.05.2020 18:00:00 17,2 7,3 - 5 3 - - WNW 1036,6 30 0,0
26.05.2020 17:00:00 18,4 7,3 - 9 5 - - W 1036,5 25 0,0
26.05.2020 16:00:00 18,3 8,5 - 5 3 - - WNW 1036,4 24 0,0
26.05.2020 15:00:00 17,6 5,5 - 8 4 - - WNW 1036,5 30 0,0
26.05.2020 14:00:00 18,0 10,8 - 9 5 - - W 1036,1 14 0,0
26.05.2020 13:00:00 16,3 8,9 - 9 5 - - W 1036,1 23 0,0
26.05.2020 12:00:00 16,8 12,1 - 8 4 - - WNW 1035,9 30 0,0
26.05.2020 11:00:00 14,9 11,0 - 8 4 - - W 1035,8 30 0,0
26.05.2020 10:00:00 13,9 12,2 14,5 4 2 - - WNW 1035,5 35 0,0
26.05.2020 09:00:00 13,9 11,2 - 4 2 - - WNW 1035,3 28 0,0
26.05.2020 08:00:00 13,3 10,9 - 2 1 - - ENE 1034,7 27 0,0
26.05.2020 07:00:00 12,6 10,8 - 2 1 - - ENE 1034,3 35 0,0
26.05.2020 06:00:00 12,2 10,7 - 2 1 - - ENE 1034,1 35 0,0
26.05.2020 05:00:00 11,9 10,5 - 2 1 - - NW 1033,8 14 0,0
26.05.2020 04:00:00 12,5 10,1 - 2 1 - - NE 1033,5 40 0,0
26.05.2020 03:00:00 12,5 9,9 - 4 2 - - E 1033,3 40 0,0
26.05.2020 02:00:00 12,3 9,9 - 5 3 - - E 1033,4 23 0,0
26.05.2020 01:00:00 12,2 9,8 - 8 4 - - SE 1033,5 20 0,0
26.05.2020 00:00:00 12,3 9,1 - 8 4 - - SSE 1033,4 23 0,0
25.05.2020 23:00:00 12,4 8,7 - 5 3 - - SSE 1033,3 28 0,0
25.05.2020 22:00:00 12,7 8,4 - 8 4 - - SE 1033,1 27 0,0
25.05.2020 21:00:00 13,1 7,6 - 5 3 - - SSE 1032,7 30 0,0
25.05.2020 20:00:00 14,1 6,2 - 5 3 - - SSW 1032,5 45 0,0
25.05.2020 19:00:00 14,6 3,3 - 8 4 - - S 1032,6 40 0,0
25.05.2020 18:00:00 15,1 3,0 - 9 5 - - SSE 1032,2 50 0,0
25.05.2020 17:00:00 16,9 4,8 - 9 5 - - SW 1032,3 35 0,0
25.05.2020 16:00:00 16,8 4,2 - 11 6 - - SW 1032,3 45 0,0
25.05.2020 15:00:00 16,5 5,0 - 16 9 - - SW 1032,7 50 0,0
25.05.2020 14:00:00 16,9 6,5 - 13 7 - - S 1032,8 35 0,0
25.05.2020 13:00:00 17,3 9,9 - 11 6 - - SSW 1032,6 19 0,0
25.05.2020 12:00:00 16,6 9,0 - 13 7 - - S 1032,7 22 0,0
25.05.2020 11:00:00 16,1 9,2 - 13 7 - - SSE 1032,8 22 0,0
25.05.2020 10:00:00 15,1 8,9 13,4 9 5 - - SSE 1033,3 30 0,0
25.05.2020 09:00:00 14,0 9,2 - 11 6 - - SE 1033,4 22 0,0
25.05.2020 08:00:00 12,9 8,9 - 11 6 - - E 1033,1 16 0,0
25.05.2020 07:00:00 10,9 8,6 - 5 3 - - E 1033,3 21 0,0
25.05.2020 06:00:00 8,6 8,3 - 8 4 - - E 1033,1 20 0,0
25.05.2020 05:00:00 5,6 5,0 - 2 1 - - N 1032,9 15 0,0
25.05.2020 04:00:00 6,7 5,8 - 0 0 - - N 1032,9 17 0,0
25.05.2020 03:00:00 8,9 6,9 - 4 2 - - E 1032,8 25 0,0
25.05.2020 02:00:00 10,1 7,6 - 2 1 - - ENE 1032,7 27 0,0
25.05.2020 01:00:00 10,5 7,6 - 2 1 - - ENE 1032,5 28 0,0
25.05.2020 00:00:00 11,9 8,7 - 5 3 - - ENE 1032,4 22 0,0
24.05.2020 23:00:00 12,5 9,3 - 5 3 - - ENE 1032,2 23 0,0
24.05.2020 22:00:00 12,6 9,4 - 5 3 - - SE 1031,9 18 0,0
24.05.2020 21:00:00 13,5 9,5 - 4 2 - - SSW 1031,2 19 0,0
24.05.2020 20:00:00 14,9 10,4 - 5 3 - - WNW 1030,8 19 0,0
24.05.2020 19:00:00 16,1 10,7 - 5 3 - - WNW 1030,3 17 0,0
24.05.2020 18:00:00 16,3 10,2 - 11 6 - - W 1030,4 17 0,0
24.05.2020 17:00:00 15,9 10,9 - 13 7 - - W 1030,3 15 0,0
24.05.2020 16:00:00 14,4 10,8 - 9 5 - - W 1030,2 20 0,0
24.05.2020 15:00:00 13,7 10,4 - 16 9 - - W 1029,7 28 0,0
24.05.2020 14:00:00 13,1 10,6 - 11 6 - - W 1029,1 21 0,0
24.05.2020 13:00:00 12,3 10,5 - 15 8 - - W 1028,3 11 0,0
24.05.2020 12:00:00 12,3 10,5 - 13 7 - - W 1027,3 17 0,0
24.05.2020 11:00:00 12,4 10,8 - 15 8 46 25 WNW 1026,3 15 0,0
24.05.2020 10:00:00 12,0 10,9 13,2 15 8 - - W 1025,4 6 0,0
24.05.2020 09:00:00 12,0 10,6 - 9 5 - - W 1024,6 20 0,0
24.05.2020 08:00:00 11,6 10,6 - 15 8 - - W 1023,6 11 0,2
24.05.2020 07:00:00 11,5 10,6 - 15 8 - - W 1022,4 4,6 0,4
24.05.2020 06:00:00 11,4 10,5 - 16 9 50 27 W 1021,7 3,7 1,8
24.05.2020 05:00:00 11,3 10,5 - 11 6 61 33 W 1020,8 3,3 1,0
24.05.2020 04:00:00 11,8 10,2 - 21 11 54 29 W 1020,2 16 0,6
24.05.2020 03:00:00 11,4 10,5 - 16 9 - - W 1019,4 3,6 3,8
24.05.2020 02:00:00 11,1 9,8 - 16 9 54 29 W 1019,4 5 1,0
24.05.2020 01:00:00 11,3 9,1 - 21 11 - - W 1019,3 6 0,0
24.05.2020 00:00:00 11,0 8,0 - 18 10 48 26 W 1019,4 23 0,0
23.05.2020 23:00:00 11,7 6,1 - 21 11 - - W 1019,1 23 0,0
23.05.2020 22:00:00 11,6 4,7 - 13 7 54 29 W 1018,7 25 0,0
23.05.2020 21:00:00 11,7 5,6 - 16 9 50 27 W 1018,2 19 0,0
23.05.2020 20:00:00 11,7 5,7 - 21 11 52 28 W 1017,4 22 0,0
23.05.2020 19:00:00 12,1 5,8 - 21 11 59 32 W 1016,4 29 0,0
23.05.2020 18:00:00 12,9 5,8 - 31 17 63 34 WSW 1015,7 20 0,0
23.05.2020 17:00:00 12,1 6,0 - 31 17 59 32 W 1015,2 25 0,0
23.05.2020 16:00:00 11,5 6,4 - 34 18 63 34 WSW 1015,0 35 0,2
23.05.2020 15:00:00 11,0 6,9 - 28 15 63 34 W 1014,0 6 0,4
23.05.2020 14:00:00 10,7 7,9 - 28 15 57 31 WSW 1012,9 11 0,8

tt = temperature
td = dewpoint
tt -20cm = temperature -20cm
ff = wind speed
fx = gusts
dd = wind direction
ppp = reduced air pressure
vv = visibility
rr = precipitation

Next stations